Location: Drawsko Pomorskie
(53.5317°N, 15.8111°E)
Time: 04:58:43
(UTC+01:00)

ISS - Visible Passes

Search period start: 24 November 2017 00:00
Search period end: 04 December 2017 00:00
Orbit: 402 x 407 km, 51.6° (Epoch: 24 November)

Date Brightness Start Highest point End Pass type
(mag) Time Alt. Az. Time Alt. Az. Time Alt. Az.
28 Nov -1.0 18:17:38 10° S 18:17:50 11° S 18:17:50 11° S visible
29 Nov -1.3 17:27:00 10° SSE 17:27:37 10° SE 17:27:45 10° SE visible
29 Nov -0.6 19:00:21 10° SW 19:00:25 10° SW 19:00:25 10° SW visible
30 Nov -2.0 18:08:22 10° SSW 18:10:15 22° S 18:10:15 22° S visible
01 Dec -1.9 17:16:38 10° SSW 17:18:56 18° SSE 17:20:01 16° ESE visible
01 Dec -1.1 18:51:44 10° WSW 18:52:40 17° SW 18:52:40 17° SW visible
02 Dec -1.3 16:25:24 10° SSE 16:26:47 12° SE 16:28:10 10° ESE visible
02 Dec -2.9 17:59:32 10° SW 18:02:23 37° S 18:02:23 37° S visible
03 Dec -2.4 17:07:26 10° SW 17:10:19 28° SSE 17:12:04 18° ESE visible
03 Dec -1.5 18:43:13 10° WSW 18:44:42 24° WSW 18:44:42 24° WSW visible
